When you browse on this site, cookies collect data to enhance your experience and personalize the content and advertising you see.
Visit our Privacy Policy to learn more. By continuing to use the site, you agree to this use of cookies and data.
  • In Hungary
  • List of Countries
  • For 7 days
  • Water Temperature
  • Satellite Maps
  • Weather Map
  • News
  • Weather Widgets
  • user-avatar
    Login

    Hourly Weather Portland

    Today, 23 February, Saturday

    Time Temperature Precipitation Wind Pressure Humidity
    00:00 +4°C° 0.1 mm 1 mps 762 mmHg 90%
    01:00 +4°C° 0.1 mm 1 mps 762 mmHg 88%
    02:00 +3°C° 0 mm 1 mps 762 mmHg 88%
    03:00 +3°C° 0 mm 1 mps 763 mmHg 88%
    04:00 +3°C° 0 mm 1 mps 763 mmHg 88%
    05:00 +3°C° 0 mm 1 mps 763 mmHg 88%
    06:00 +3°C° 0 mm 1 mps 763 mmHg 89%
    07:00 +3°C° 0 mm 1 mps 763 mmHg 89%
    08:00 +4°C° 0.2 mm 1 mps 763 mmHg 87%
    09:00 +5°C° 0.2 mm 1 mps 764 mmHg 85%
    10:00 +6°C° 0.2 mm 1 mps 764 mmHg 83%
    11:00 +7°C° 0.4 mm 1 mps 764 mmHg 79%
    12:00 +7°C° 0.4 mm 2 mps 763 mmHg 76%
    13:00 +7°C° 0.4 mm 2 mps 763 mmHg 72%
    14:00 +7°C° 0.6 mm 2 mps 763 mmHg 73%
    15:00 +8°C° 0.6 mm 2 mps 763 mmHg 73%
    16:00 +8°C° 0.6 mm 2 mps 763 mmHg 73%
    17:00 +7°C° 0.3 mm 2 mps 763 mmHg 76%
    18:00 +7°C° 0.3 mm 1 mps 763 mmHg 80%
    19:00 +6°C° 0.3 mm 1 mps 763 mmHg 83%
    20:00 +5°C° 0.1 mm 1 mps 763 mmHg 85%
    21:00 +4°C° 0.1 mm 1 mps 763 mmHg 87%
    22:00 +4°C° 0.1 mm 1 mps 763 mmHg 89%
    23:00 +4°C° 1 mm 1 mps 762 mmHg 89%

    Tomorrow, 24 February, Sunday

    Time Temperature Precipitation Wind Pressure Humidity
    00:00 +4°C° 1 mm 1 mps 762 mmHg 89%
    01:00 +4°C° 1 mm 1 mps 761 mmHg 89%
    02:00 +4°C° 0.9 mm 1 mps 761 mmHg 89%
    03:00 +4°C° 0.9 mm 1 mps 761 mmHg 89%
    04:00 +3°C° 0.9 mm 0 mps 761 mmHg 90%
    05:00 +3°C° 0 mm 0 mps 761 mmHg 90%
    06:00 +3°C° 0 mm 0 mps 761 mmHg 90%
    07:00 +2°C° 0 mm 0 mps 761 mmHg 89%
    08:00 +3°C° 0 mm 0 mps 761 mmHg 86%
    09:00 +4°C° 0 mm 0 mps 761 mmHg 83%
    10:00 +5°C° 0 mm 0 mps 761 mmHg 80%
    11:00 +6°C° 0.1 mm 0 mps 761 mmHg 78%
    12:00 +6°C° 0.1 mm 0 mps 760 mmHg 77%
    13:00 +8°C° 0.1 mm 1 mps 760 mmHg 75%
    14:00 +8°C° 0.2 mm 1 mps 760 mmHg 76%
    15:00 +8°C° 0.2 mm 1 mps 760 mmHg 77%
    16:00 +7°C° 0.2 mm 1 mps 759 mmHg 78%
    17:00 +7°C° 0.2 mm 1 mps 759 mmHg 80%
    18:00 +6°C° 0.2 mm 1 mps 759 mmHg 83%
    19:00 +5°C° 0.2 mm 1 mps 759 mmHg 85%
    20:00 +5°C° 0.1 mm 1 mps 759 mmHg 85%
    21:00 +5°C° 0.1 mm 1 mps 759 mmHg 84%
    22:00 +3°C° 0.1 mm 2 mps 759 mmHg 83%
    23:00 +3°C° 0.5 mm 2 mps 758 mmHg 83%

    Day after tomorrow, 25 February, Monday

    Time Temperature Precipitation Wind Pressure Humidity
    00:00 +3°C° 0.5 mm 2 mps 758 mmHg 83%
    01:00 +1°C° 0.5 mm 3 mps 757 mmHg 82%
    02:00 +1°C° 0.7 mm 3 mps 757 mmHg 84%
    03:00 +1°C° 0.7 mm 3 mps 756 mmHg 85%
    04:00 0°C° 0.7 mm 3 mps 755 mmHg 87%
    05:00 -1°C° 1.6 mm 4 mps 754 mmHg 89%
    06:00 -1°C° 1.6 mm 4 mps 753 mmHg 91%
    07:00 -1°C° 1.6 mm 4 mps 752 mmHg 92%
    08:00 -1°C° 2.7 mm 4 mps 752 mmHg 93%
    09:00 -1°C° 2.7 mm 4 mps 752 mmHg 94%
    10:00 0°C° 2.7 mm 3 mps 751 mmHg 95%
    11:00 0°C° 1.3 mm 3 mps 751 mmHg 96%
    12:00 +1°C° 1.3 mm 2 mps 751 mmHg 96%
    13:00 +1°C° 1.3 mm 2 mps 751 mmHg 97%
    14:00 +2°C° 0.3 mm 1 mps 751 mmHg 97%
    15:00 +2°C° 0.3 mm 1 mps 751 mmHg 98%
    16:00 +2°C° 0.3 mm 1 mps 752 mmHg 98%
    17:00 +1°C° 0.3 mm 0 mps 752 mmHg 98%
    18:00 +1°C° 0.3 mm 0 mps 753 mmHg 98%
    19:00 +1°C° 0.3 mm 0 mps 754 mmHg 98%
    20:00 +1°C° 0.1 mm 0 mps 754 mmHg 98%
    21:00 +1°C° 0.1 mm 0 mps 755 mmHg 98%
    22:00 0°C° 0.1 mm 0 mps 756 mmHg 98%
    23:00 0°C° 0 mm 0 mps 756 mmHg 98%

    26 February, Tuesday

    Time Temperature Precipitation Wind Pressure Humidity
    00:00 0°C° 0 mm 0 mps 757 mmHg 98%
    01:00 -1°C° 0 mm 0 mps 757 mmHg 98%
    02:00 -1°C° 0 mm 0 mps 758 mmHg 98%
    03:00 -1°C° 0 mm 0 mps 758 mmHg 98%
    04:00 -1°C° 0 mm 0 mps 758 mmHg 97%
    05:00 -1°C° 0 mm 0 mps 759 mmHg 97%
    06:00 -1°C° 0 mm 0 mps 759 mmHg 97%
    07:00 0°C° 0 mm 1 mps 759 mmHg 97%
    08:00 +1°C° 0 mm 1 mps 759 mmHg 97%
    09:00 +2°C° 0 mm 1 mps 759 mmHg 97%
    10:00 +3°C° 0 mm 1 mps 759 mmHg 97%
    11:00 +3°C° 0 mm 1 mps 759 mmHg 97%
    12:00 +3°C° 0 mm 2 mps 759 mmHg 96%
    13:00 +2°C° 0 mm 3 mps 759 mmHg 96%
    14:00 +2°C° 0 mm 3 mps 758 mmHg 93%
    15:00 +1°C° 0 mm 4 mps 758 mmHg 90%
    16:00 +1°C° 0 mm 4 mps 758 mmHg 88%
    17:00 0°C° 0 mm 4 mps 758 mmHg 86%
    18:00 -1°C° 0 mm 4 mps 757 mmHg 84%
    19:00 -2°C° 0 mm 4 mps 757 mmHg 82%
    20:00 -2°C° 0 mm 4 mps 757 mmHg 81%
    21:00 -2°C° 0 mm 4 mps 757 mmHg 80%
    22:00 -2°C° 0 mm 4 mps 756 mmHg 80%
    23:00 -1°C° 0.1 mm 3 mps 756 mmHg 82%

    27 February, Wednesday

    Time Temperature Precipitation Wind Pressure Humidity
    00:00 -1°C° 0.1 mm 2 mps 756 mmHg 85%
    01:00 +1°C° 0.1 mm 1 mps 756 mmHg 88%
    02:00 +1°C° 0.2 mm 1 mps 757 mmHg 89%
    03:00 +1°C° 0.2 mm 1 mps 757 mmHg 91%
    04:00 +1°C° 0.2 mm 1 mps 757 mmHg 93%
    05:00 +1°C° 0.1 mm 1 mps 758 mmHg 93%
    06:00 +1°C° 0.1 mm 1 mps 759 mmHg 93%
    07:00 +1°C° 0.1 mm 1 mps 759 mmHg 93%
    08:00 +2°C° 0 mm 1 mps 760 mmHg 92%
    09:00 +2°C° 0 mm 1 mps 760 mmHg 91%
    10:00 +3°C° 0 mm 1 mps 761 mmHg 90%
    11:00 +4°C° 0 mm 1 mps 761 mmHg 89%
    12:00 +5°C° 0 mm 1 mps 761 mmHg 87%
    13:00 +6°C° 0 mm 1 mps 761 mmHg 86%
    14:00 +6°C° 0.2 mm 1 mps 761 mmHg 86%
    15:00 +6°C° 0.2 mm 1 mps 760 mmHg 87%
    16:00 +6°C° 0.2 mm 1 mps 760 mmHg 88%
    17:00 +6°C° 0.2 mm 1 mps 760 mmHg 88%
    18:00 +5°C° 0.2 mm 1 mps 760 mmHg 88%
    19:00 +4°C° 0.2 mm 1 mps 760 mmHg 89%
    20:00 +4°C° 0.1 mm 1 mps 760 mmHg 88%
    21:00 +3°C° 0.1 mm 1 mps 760 mmHg 88%
    22:00 +3°C° 0.1 mm 1 mps 760 mmHg 87%
    23:00 +3°C° 0.2 mm 1 mps 760 mmHg 88%

    28 February, Thursday

    Time Temperature Precipitation Wind Pressure Humidity
    00:00 +2°C° 0.2 mm 1 mps 760 mmHg 89%
    01:00 +2°C° 0.2 mm 1 mps 760 mmHg 90%
    02:00 +1°C° 0.3 mm 0 mps 760 mmHg 92%
    03:00 +1°C° 0.3 mm 0 mps 760 mmHg 93%
    04:00 +1°C° 0.3 mm 0 mps 761 mmHg 95%
    05:00 +2°C° 0 mm 1 mps 761 mmHg 95%
    06:00 +2°C° 0 mm 1 mps 761 mmHg 96%
    07:00 +2°C° 0 mm 1 mps 761 mmHg 96%
    08:00 +1°C° 0.2 mm 2 mps 761 mmHg 94%
    09:00 +2°C° 0.2 mm 2 mps 761 mmHg 92%
    10:00 +2°C° 0.2 mm 3 mps 761 mmHg 89%
    11:00 +3°C° 0.3 mm 3 mps 762 mmHg 86%
    12:00 +3°C° 0.3 mm 3 mps 762 mmHg 83%
    13:00 +4°C° 0.3 mm 3 mps 762 mmHg 80%
    14:00 +4°C° 0.5 mm 3 mps 763 mmHg 81%
    15:00 +5°C° 0.5 mm 2 mps 763 mmHg 82%
    16:00 +5°C° 0.5 mm 2 mps 764 mmHg 83%
    17:00 +5°C° 0.3 mm 1 mps 764 mmHg 86%
    18:00 +4°C° 0.3 mm 1 mps 765 mmHg 88%
    19:00 +2°C° 0.3 mm 1 mps 766 mmHg 91%
    20:00 +2°C° 0 mm 1 mps 767 mmHg 91%
    21:00 +1°C° 0 mm 1 mps 767 mmHg 91%
    22:00 +1°C° 0 mm 1 mps 768 mmHg 92%
    23:00 +1°C° 0 mm 1 mps 769 mmHg 91%
    Show more